GW1885 Weather Reports


Display with metric or nautical units.
time (UTC)temp
F
wind
direction
speed
MPH
gust
MPH
rain 1hr
in
rain 24hr
in
rain mn
in
humidity
%
barometer
mb
20260904172504 61 28 3.0 8.0 0.00 0.41 0.30 99 999.3
20260904172026 61 53 2.0 8.0 0.00 0.41 0.30 99 999.2
20260904171505 61 73 2.0 9.0 0.00 0.42 0.30 99 999.1
20260904171004 61 69 2.0 9.0 0.00 0.43 0.30 99 999.0
20260904170505 61 49 2.0 7.0 0.00 0.43 0.30 99 998.9
20260904170004 61 9 2.0 7.0 0.00 0.43 0.30 99 998.8
20260904165504 61 358 2.0 7.0 0.00 0.43 0.30 99 998.8
20260904165005 61 9 2.0 7.0 0.00 0.43 0.30 99 998.6
20260904164503 61 77 2.0 7.0 0.00 0.43 0.30 99 998.7
20260904164004 61 90 2.0 7.0 0.01 0.43 0.30 99 998.7
20260904163504 61 74 1.0 3.0 0.01 0.43 0.30 99 998.6
20260904163004 61 60 1.0 3.0 0.01 0.43 0.30 99 998.8
20260904162504 61 63 1.0 4.0 0.02 0.43 0.30 99 998.6
20260904162004 61 79 1.0 4.0 0.02 0.43 0.30 99 998.7
20260904161504 62 105 1.0 4.0 0.04 0.43 0.30 99 998.6
20260904161004 62 124 2.0 4.0 0.04 0.43 0.30 99 998.7
20260904160503 61 134 3.0 6.0 0.05 0.43 0.30 99 998.5
20260904160004 61 139 4.0 7.0 0.05 0.42 0.30 99 998.2
20260904155504 61 136 4.0 7.0 0.05 0.42 0.30 99 997.9
20260904155005 61 130 4.0 7.0 0.06 0.42 0.30 99 997.6
20260904154504 61 134 4.0 9.0 0.06 0.42 0.30 99 998.4
20260904154004 61 138 5.0 9.0 0.08 0.42 0.30 99 998.2
20260904153503 61 139 5.0 9.0 0.09 0.42 0.29 99 998.2
20260904153004 61 137 4.0 8.0 0.11 0.42 0.29 99 998.3
20260904152504 61 132 4.0 8.0 0.12 0.42 0.29 99 998.4
20260904152003 61 129 4.0 8.0 0.12 0.42 0.28 99 998.8
20260904151503 61 132 5.0 9.0 0.12 0.42 0.27 99 999.2
20260904151004 61 127 3.0 9.0 0.12 0.42 0.26 99 999.5
20260904150525 61 118 2.0 6.0 0.13 0.42 0.26 99 999.3
20260904150004 61 134 2.0 6.0 0.13 0.42 0.25 99 999.4
20260904145504 61 137 4.0 7.0 0.13 0.41 0.25 99 999.0
20260904145004 61 140 4.0 7.0 0.14 0.41 0.24 99 999.3
20260904144524 61 130 3.0 7.0 0.15 0.41 0.24 99 999.6
20260904144004 60 116 2.0 8.0 0.15 0.39 0.22 99 999.8
20260904143503 60 134 2.0 10.0 0.14 0.37 0.20 99 1000.1
20260904143005 60 136 4.0 10.0 0.12 0.37 0.18 99 999.8
20260904142504 60 131 4.0 9.0 0.11 0.36 0.17 98 999.9
20260904142005 60 133 3.0 8.0 0.10 0.37 0.16 98 1000.3
20260904141505 60 138 4.0 9.0 0.09 0.36 0.15 98 1000.5
20260904141025 60 138 4.0 11.0 0.08 0.37 0.14 98 1000.3
20260904140525 60 141 4.0 11.0 0.07 0.37 0.13 98 1000.3
20260904140004 60 142 5.0 11.0 0.06 0.38 0.12 98 1000.6
20260904135504 60 141 5.0 9.0 0.06 0.38 0.11 98 1000.6
20260904135004 60 143 5.0 9.0 0.04 0.39 0.10 97 1000.9
20260904134505 60 140 4.0 9.0 0.03 0.40 0.09 97 1001.2
20260904134025 60 136 4.0 9.0 0.02 0.39 0.07 97 1001.5
20260904133505 60 137 4.0 10.0 0.00 0.39 0.06 97 1001.5
20260904133004 60 136 4.0 10.0 0.01 0.40 0.06 97 1001.7
20260904132503 60 138 4.0 9.0 0.02 0.41 0.06 97 1001.9
20260904132004 60 130 4.0 9.0 0.02 0.42 0.06 97 1001.9
20260904131504 60 128 4.0 9.0 0.02 0.43 0.06 97 1002.0
20260904131025 60 134 5.0 10.0 0.02 0.43 0.06 96 1002.1
20260904130503 60 137 6.0 10.0 0.02 0.44 0.06 96 1002.3
20260904130004 61 134 5.0 11.0 0.02 0.44 0.06 96 1002.3
20260904125503 61 134 5.0 13.0 0.02 0.44 0.06 96 1002.5
20260904125004 61 134 6.0 13.0 0.02 0.45 0.06 97 1002.5
20260904124525 61 136 6.0 14.0 0.02 0.45 0.06 96 1002.6
20260904124004 61 141 7.0 17.0 0.02 0.45 0.06 96 1002.7
20260904123524 62 141 7.0 17.0 0.02 0.45 0.06 95 1002.9
20260904123003 62 139 6.0 14.0 0.01 0.44 0.05 95 1003.3
20260904122504 62 139 6.0 14.0 0.00 0.44 0.04 95 1003.4
20260904122003 62 142 5.0 9.0 0.00 0.44 0.04 95 1003.5
20260904121503 62 137 5.0 11.0 0.01 0.44 0.04 94 1003.6
20260904121004 62 134 5.0 11.0 0.00 0.43 0.04 93 1003.9
20260904120504 63 131 5.0 11.0 0.00 0.43 0.04 92 1004.2
20260904120004 63 124 4.0 10.0 0.01 0.43 0.04 92 1004.3
20260904115503 63 126 5.0 10.0 0.01 0.43 0.04 91 1004.3
20260904115004 63 128 5.0 10.0 0.01 0.43 0.04 91 1004.3
20260904114504 63 128 4.0 11.0 0.01 0.43 0.04 93 1004.6
20260904114004 63 125 4.0 11.0 0.01 0.43 0.04 94 1004.6
20260904113504 62 117 4.0 11.0 0.01 0.43 0.04 93 1004.8
20260904113004 62 114 4.0 11.0 0.01 0.43 0.04 92 1004.8
20260904112504 63 112 4.0 8.0 0.01 0.43 0.04 93 1005.0
20260904112003 63 108 3.0 6.0 0.01 0.43 0.04 93 1005.3
20260904111503 63 107 3.0 8.0 0.00 0.43 0.04 92 1005.1
20260904111003 63 104 3.0 8.0 0.00 0.43 0.04 92 1005.2
20260904110505 63 111 3.0 6.0 0.00 0.43 0.04 91 1005.5
20260904110005 63 113 3.0 6.0 0.00 0.43 0.03 91 1005.6
20260904105504 63 98 3.0 6.0 0.00 0.43 0.03 89 1005.5
20260904105024 63 79 3.0 6.0 0.00 0.43 0.03 87 1005.6
20260904104526 64 71 2.0 6.0 0.00 0.43 0.03 85 1005.6
20260904104004 64 80 2.0 6.0 0.00 0.43 0.03 84 1005.8
20260904103504 65 80 2.0 8.0 0.00 0.43 0.03 83 1005.8
20260904103004 65 84 2.0 8.0 0.00 0.43 0.03 85 1006.0
20260904102503 65 95 2.0 6.0 0.00 0.43 0.03 83 1006.1
20260904102005 65 98 2.0 6.0 0.00 0.43 0.03 83 1006.0
20260904101504 65 92 2.0 6.0 0.00 0.43 0.03 82 1006.0
20260904101025 65 91 2.0 4.0 0.00 0.43 0.03 85 1006.1
20260904100504 64 99 2.0 6.0 0.00 0.43 0.03 85 1006.3
20260904100005 65 89 2.0 6.0 0.00 0.43 0.03 85 1006.2
20260904095504 65 80 3.0 6.0 0.00 0.43 0.03 83 1006.0
20260904095003 65 81 2.0 4.0 0.00 0.43 0.03 84 1006.1
20260904094504 65 86 3.0 6.0 0.00 0.43 0.03 83 1006.3
20260904094004 65 80 3.0 7.0 0.00 0.43 0.03 84 1006.3
20260904093503 65 82 3.0 7.0 0.00 0.43 0.03 83 1006.2
20260904093004 65 103 3.0 7.0 0.00 0.43 0.03 84 1006.2
20260904092503 65 100 3.0 7.0 0.00 0.43 0.03 85 1006.2
20260904092003 65 79 3.0 7.0 0.00 0.43 0.03 84 1006.2
20260904091503 64 70 3.0 7.0 0.00 0.43 0.03 85 1006.3
20260904091025 64 71 3.0 9.0 0.00 0.43 0.03 85 1006.5
20260904090504 64 82 3.0 9.0 0.00 0.43 0.03 85 1006.5
20260904090004 65 94 2.0 7.0 0.00 0.43 0.03 85 1006.5
20260904085503 65 91 3.0 6.0 0.00 0.43 0.03 90 1006.5
20260904085003 64 85 3.0 6.0 0.00 0.43 0.03 89 1006.5
20260904084504 64 100 3.0 8.0 0.00 0.43 0.03 90 1006.3
20260904084025 64 103 3.0 8.0 0.00 0.43 0.03 89 1006.4
20260904083503 64 88 2.0 8.0 0.00 0.43 0.03 90 1006.7
20260904083004 63 90 2.0 8.0 0.00 0.43 0.03 92 1006.7
20260904082504 63 104 2.0 6.0 0.00 0.43 0.03 91 1006.7
20260904082004 63 106 2.0 6.0 0.00 0.43 0.03 92 1007.0
20260904081504 63 104 2.0 8.0 0.00 0.43 0.03 93 1006.8
20260904081004 63 115 2.0 8.0 0.00 0.43 0.03 91 1006.7
20260904080503 63 110 2.0 6.0 0.00 0.43 0.03 90 1006.8
20260904080003 63 100 2.0 6.0 0.00 0.43 0.03 89 1006.7
20260904075525 64 98 2.0 6.0 0.00 0.43 0.03 89 1006.8
20260904075005 64 88 2.0 6.0 0.00 0.43 0.03 91 1007.0
20260904074505 63 91 2.0 6.0 0.00 0.43 0.03 91 1006.9
20260904074004 63 92 2.0 4.0 0.00 0.43 0.03 92 1006.7
20260904073504 62 83 2.0 6.0 0.00 0.43 0.03 92 1006.8
20260904073025 62 69 2.0 6.0 0.00 0.43 0.03 93 1006.7
20260904072504 62 67 3.0 6.0 0.00 0.43 0.03 92 1006.7
20260904072005 62 77 2.0 6.0 0.00 0.43 0.03 93 1006.9
20260904071505 62 87 2.0 6.0 0.00 0.43 0.03 93 1007.0
20260904071006 62 100 2.0 6.0 0.00 0.43 0.03 94 1006.9
20260904070505 62 103 3.0 6.0 0.00 0.43 0.03 94 1006.9
20260904070005 61 97 3.0 6.0 0.00 0.43 0.03 95 1006.9
20260904065504 61 89 2.0 6.0 0.00 0.43 0.03 94 1007.0
20260904065004 61 88 2.0 4.0 0.00 0.43 0.03 95 1007.1
20260904064505 61 78 2.0 4.0 0.00 0.43 0.03 94 1007.1
20260904064005 61 79 2.0 7.0 0.00 0.43 0.03 94 1007.0
20260904063505 60 80 2.0 7.0 0.00 0.43 0.03 94 1007.1
20260904063005 60 70 2.0 4.0 0.00 0.43 0.03 95 1007.0
20260904062525 60 72 2.0 4.0 0.00 0.43 0.03 95 1007.1
20260904062005 60 74 2.0 6.0 0.00 0.43 0.03 95 1007.2
20260904061504 60 82 2.0 6.0 0.00 0.43 0.03 95 1007.2
20260904061004 60 86 2.0 4.0 0.00 0.43 0.03 96 1007.0
20260904060505 60 71 1.0 4.0 0.00 0.43 0.03 96 1007.3
20260904060006 60 73 1.0 4.0 0.00 0.43 0.03 96 1007.1
20260904055505 60 78 1.0 7.0 0.00 0.43 0.03 96 1007.2
20260904055026 60 73 2.0 7.0 0.00 0.43 0.03 96 1007.3
20260904054504 60 71 2.0 8.0 0.00 0.43 0.03 97 1007.2
20260904054005 60 71 2.0 8.0 0.00 0.43 0.03 97 1007.3
20260904053505 60 71 2.0 7.0 0.00 0.43 0.03 97 1007.2
20260904053004 60 82 2.0 6.0 0.00 0.43 0.03 97 1007.3
20260904052504 60 93 2.0 6.0 0.00 0.42 0.03 97 1007.3
20260904052005 60 98 3.0 6.0 0.00 0.42 0.03 97 1007.1
20260904051505 60 103 3.0 7.0 0.00 0.42 0.03 97 1007.2
20260904051004 60 101 2.0 7.0 0.00 0.42 0.03 97 1007.2
20260904050505 60 93 1.0 4.0 0.00 0.42 0.03 96 1007.4
20260904050005 60 86 1.0 4.0 0.00 0.42 0.03 96 1007.4
20260904045504 60 83 1.0 3.0 0.00 0.42 0.03 96 1007.3
20260904045004 60 79 1.0 4.0 0.00 0.42 0.03 96 1007.3
20260904044504 60 77 1.0 4.0 0.00 0.42 0.03 96 1007.4
20260904044005 60 35 1.0 4.0 0.00 0.42 0.03 95 1007.3
20260904043504 60 351 1.0 3.0 0.00 0.42 0.03 95 1007.6
20260904043005 60 27 1.0 4.0 0.00 0.42 0.03 95 1007.3
20260904042504 60 43 1.0 4.0 0.00 0.42 0.03 95 1007.4
20260904042004 60 48 2.0 6.0 0.00 0.42 0.03 95 1007.5
20260904041526 60 55 2.0 6.0 0.00 0.42 0.03 96 1007.5
20260904041004 60 84 2.0 6.0 0.00 0.42 0.03 96 1007.6
20260904040525 60 90 2.0 6.0 0.00 0.42 0.03 96 1007.6
20260904040004 60 86 2.0 4.0 0.00 0.42 0.03 96 1007.4
20260904035504 60 79 2.0 6.0 0.00 0.42 0.03 96 1007.5
20260904035005 60 66 2.0 6.0 0.00 0.42 0.03 96 1007.6
20260904034505 60 71 2.0 6.0 0.00 0.42 0.03 96 1007.5
20260904034005 60 52 2.0 8.0 0.00 0.42 0.03 96 1007.5
20260904033504 61 37 2.0 8.0 0.00 0.42 0.03 96 1007.7
20260904033005 60 74 1.0 4.0 0.00 0.42 0.03 96 1007.7
20260904032525 60 75 2.0 3.0 0.00 0.42 0.03 96 1007.8
20260904032005 61 65 2.0 6.0 0.00 0.42 0.03 96 1007.8
20260904031504 61 66 2.0 6.0 0.00 0.42 0.03 96 1007.8
20260904031005 61 51 2.0 7.0 0.00 0.42 0.03 96 1007.5
20260904030526 61 41 2.0 7.0 0.00 0.42 0.03 96 1007.7
20260904030005 61 35 2.0 6.0 0.00 0.42 0.03 96 1007.5
20260904025525 61 36 2.0 6.0 0.00 0.42 0.03 96 1007.6
20260904025004 61 58 2.0 4.0 0.00 0.42 0.03 96 1007.6
20260904024505 61 71 1.0 4.0 0.00 0.42 0.03 96 1007.6
20260904024004 61 45 1.0 4.0 0.00 0.42 0.03 96 1007.8
20260904023504 61 44 2.0 6.0 0.00 0.42 0.03 96 1007.9
20260904023005 61 32 2.0 6.0 0.00 0.42 0.03 96 1007.7
20260904022504 61 34 2.0 6.0 0.00 0.42 0.03 96 1007.8
20260904022004 61 65 1.0 4.0 0.00 0.42 0.03 96 1007.9
20260904021504 61 34 1.0 3.0 0.00 0.42 0.03 96 1008.0
20260904021004 61 51 1.0 7.0 0.00 0.42 0.03 96 1007.8
20260904020504 61 62 2.0 7.0 0.00 0.42 0.03 96 1007.9
20260904020025 61 23 2.0 7.0 0.00 0.42 0.03 96 1008.0
20260904015504 61 360 2.0 7.0 0.00 0.42 0.03 96 1007.8
20260904015005 61 34 2.0 7.0 0.00 0.42 0.03 96 1007.9
20260904014525 61 49 2.0 4.0 0.00 0.42 0.03 96 1007.9
20260904014005 61 28 2.0 7.0 0.00 0.42 0.03 96 1007.9
20260904013504 61 21 2.0 7.0 0.00 0.42 0.03 96 1008.0
20260904013025 61 40 2.0 8.0 0.00 0.42 0.03 96 1008.0
20260904012505 61 56 2.0 8.0 0.00 0.42 0.03 96 1008.1
20260904012025 61 33 2.0 7.0 0.00 0.42 0.03 96 1007.9
20260904011504 61 357 3.0 7.0 0.00 0.42 0.03 97 1007.9
20260904011026 61 22 2.0 7.0 0.00 0.42 0.03 97 1008.0
20260904010504 61 67 3.0 10.0 0.00 0.42 0.03 97 1007.8
20260904010006 61 69 3.0 10.0 0.00 0.42 0.03 97 1007.7
20260904005504 61 43 2.0 7.0 0.02 0.42 0.03 97 1007.9
20260904005005 61 34 2.0 6.0 0.02 0.42 0.03 97 1008.1
20260904004505 62 47 2.0 8.0 0.02 0.42 0.03 97 1007.9
20260904004005 62 60 2.0 9.0 0.02 0.42 0.03 97 1007.9
20260904003504 61 40 3.0 14.0 0.02 0.42 0.03 98 1007.9
20260904003005 62 43 3.0 14.0 0.02 0.42 0.03 98 1007.9
20260904002504 62 64 2.0 8.0 0.02 0.42 0.03 98 1007.9
20260904002005 61 65 2.0 8.0 0.02 0.42 0.03 98 1008.0
20260904001526 61 90 2.0 7.0 0.02 0.42 0.03 98 1007.9
20260904001005 61 103 3.0 7.0 0.02 0.42 0.03 98 1007.8
20260904000504 62 95 3.0 7.0 0.02 0.42 0.02 99 1007.9
20260904000005 62 92 2.0 6.0 0.02 0.42 0.02 98 1007.8
20260903235505 62 94 2.0 4.0 0.01 0.41 0.01 98 1008.1
20260903235004 62 99 2.0 6.0 0.00 0.40 0.01 99 1007.9
20260903234505 62 101 2.0 8.0 0.00 0.40 0.00 99 1007.9
20260903234004 62 93 2.0 8.0 0.00 0.40 0.00 99 1008.0
20260903233505 62 89 2.0 6.0 0.00 0.40 0.00 99 1008.2
20260903233005 62 91 2.0 6.0 0.00 0.40 0.00 99 1008.2
20260903232525 62 95 2.0 6.0 0.00 0.40 0.00 99 1008.2
20260903232004 61 96 2.0 4.0 0.00 0.40 0.00 99 1008.1
20260903231505 62 98 2.0 6.0 0.00 0.40 0.00 99 1008.2
20260903231006 61 102 2.0 6.0 0.00 0.40 0.00 99 1008.3
20260903230504 61 101 2.0 6.0 0.00 0.40 0.00 99 1008.4
20260903230005 61 100 2.0 6.0 0.00 0.40 0.00 99 1008.2
20260903225504 61 102 2.0 4.0 0.00 0.40 0.00 99 1008.3
20260903225005 61 103 2.0 6.0 0.00 0.40 0.00 99 1008.4
20260903224525 61 102 2.0 6.0 0.00 0.40 0.00 99 1008.3
20260903224005 61 102 3.0 6.0 0.00 0.40 0.00 99 1008.5
20260903223504 61 104 3.0 4.0 0.00 0.39 0.00 99 1008.5
20260903223004 61 104 2.0 6.0 0.00 0.39 0.00 99 1008.5
20260903222504 61 106 2.0 6.0 0.00 0.39 0.00 99 1008.6
20260903222004 61 110 3.0 4.0 0.00 0.39 0.00 99 1008.7
20260903221504 61 109 2.0 6.0 0.00 0.39 0.00 99 1008.7
20260903221025 61 106 3.0 6.0 0.00 0.39 0.00 99 1008.7
20260903220505 61 110 3.0 6.0 0.00 0.39 0.00 99 1008.6
20260903220006 61 113 3.0 4.0 0.00 0.39 0.00 99 1008.8
20260903215505 61 111 3.0 6.0 0.00 0.39 0.39 99 1008.8
20260903215004 61 114 3.0 7.0 0.00 0.39 0.39 99 1008.8
20260903214505 61 112 3.0 7.0 0.00 0.39 0.39 99 1009.0
20260903214025 61 107 3.0 7.0 0.00 0.39 0.39 99 1009.0
20260903213504 61 103 3.0 7.0 0.00 0.39 0.39 99 1009.0
20260903213005 60 101 3.0 4.0 0.00 0.39 0.39 99 1009.0
20260903212525 60 102 2.0 4.0 0.00 0.39 0.39 99 1009.2
20260903212006 60 102 3.0 7.0 0.00 0.39 0.39 99 1009.0
20260903211525 60 102 3.0 7.0 0.00 0.39 0.39 99 1009.2
20260903211005 60 105 3.0 7.0 0.00 0.39 0.39 99 1009.0
20260903210504 60 109 3.0 8.0 0.00 0.39 0.39 99 1009.1
20260903210005 60 107 3.0 8.0 0.00 0.39 0.39 99 1009.0
20260903205504 60 103 3.0 7.0 0.00 0.39 0.39 99 1009.0
20260903205005 60 100 3.0 7.0 0.00 0.39 0.39 99 1009.1
20260903204505 60 96 3.0 7.0 0.00 0.39 0.39 99 1009.2
20260903204004 60 100 3.0 7.0 0.00 0.39 0.39 99 1009.2
20260903203526 60 107 3.0 7.0 0.00 0.39 0.39 99 1009.4
20260903203005 60 112 3.0 10.0 0.00 0.39 0.39 99 1009.4
20260903202505 60 115 4.0 10.0 0.00 0.39 0.39 99 1009.4
20260903202004 60 112 4.0 9.0 0.00 0.39 0.39 99 1009.6
20260903201504 60 112 4.0 14.0 0.00 0.39 0.39 99 1009.6
20260903201005 60 119 5.0 14.0 0.00 0.39 0.39 99 1009.5
20260903200505 60 118 5.0 10.0 0.00 0.39 0.39 99 1009.4
20260903200004 60 118 4.0 9.0 0.00 0.39 0.39 99 1009.3
20260903195525 60 123 5.0 9.0 0.00 0.39 0.39 99 1009.4
20260903195005 60 119 5.0 10.0 0.01 0.39 0.39 99 1009.3
20260903194504 60 115 4.0 10.0 0.01 0.39 0.39 99 1009.4
20260903194005 60 120 4.0 9.0 0.02 0.39 0.39 99 1009.4
20260903193525 60 126 4.0 9.0 0.02 0.39 0.39 99 1009.6
20260903193005 60 123 5.0 11.0 0.04 0.39 0.39 99 1009.7
20260903192504 60 128 6.0 14.0 0.04 0.39 0.39 99 1009.5
20260903192004 60 135 6.0 15.0 0.04 0.39 0.39 99 1009.6
20260903191525 60 137 7.0 15.0 0.04 0.39 0.39 99 1009.7
20260903191005 60 134 7.0 15.0 0.04 0.39 0.39 98 1009.5
20260903190503 60 132 7.0 15.0 0.06 0.39 0.39 99 1009.9
20260903190004 60 132 7.0 13.0 0.06 0.39 0.39 98 1009.8
20260903185503 60 129 6.0 14.0 0.07 0.39 0.39 98 1009.7
20260903185005 60 129 6.0 14.0 0.07 0.39 0.39 98 1009.7
20260903184504 60 132 7.0 14.0 0.07 0.38 0.38 98 1010.0
20260903184004 60 133 7.0 14.0 0.07 0.38 0.38 98 1010.0
20260903183505 60 131 7.0 13.0 0.08 0.37 0.37 98 1009.9
20260903183004 60 130 5.0 11.0 0.07 0.36 0.36 98 1010.2
20260903182503 60 130 5.0 10.0 0.06 0.35 0.35 98 1010.2
20260903182005 60 129 4.0 10.0 0.07 0.35 0.35 98 1010.5
20260903181504 60 128 5.0 9.0 0.08 0.35 0.35 98 1010.4
20260903181005 60 123 5.0 10.0 0.08 0.35 0.35 98 1010.5
20260903180503 60 118 4.0 11.0 0.07 0.34 0.34 98 1010.6
20260903180005 60 114 4.0 11.0 0.06 0.33 0.33 98 1010.6
20260903175525 60 114 3.0 9.0 0.05 0.32 0.32 98 1010.7
20260903175025 60 122 3.0 10.0 0.05 0.32 0.32 98 1010.8
20260903174504 60 125 4.0 10.0 0.04 0.31 0.31 98 1010.4
20260903174026 60 126 4.0 9.0 0.04 0.31 0.31 98 1010.3
20260903173526 60 126 5.0 9.0 0.02 0.30 0.30 98 1010.3
20260903173004 60 131 6.0 16.0 0.02 0.29 0.29 98 1010.3